Location: Unspecified
(44.0704°N, 88.6889°W)
Time: 03:00:51
(UTC+02:00)

Altair - Pass Details

Date: 23 June 2019
Orbit: 1501 x 1683 km, 47.2° (Epoch: 14 October)

Event Time Altitude Azimuth Distance (km) Brightness Sun altitude
Rises 08:32:28 0° 291° (WNW) 4,821 10.3 -22.0°
Reaches altitude 10° 08:35:32 10° 291° (WNW) 3,856 9.7 -21.9°
Maximum altitude 08:45:27 80° 207° (SSW) 1,686 7.5 -21.6°
Drops below altitude 10° 08:55:36 10° 122° (ESE) 3,939 9.5 -21.2°
Sets 08:58:46 0° 121° (ESE) 4,927 10.0 -21.0°
